This demonstration page uses our WeatherBlox Daily Observations layout. Learn more.

Left ArrowRight Arrow

39.08367, -84.50855

Hourly Observations for September 11, 2017

Temp ( °F °C ) Dew Point ( °F °C ) Humidity (%) Winds ( mph kmh ) Pressure ( in mb ) Visibility ( mi km ) Precip ( " mm )
12:53 am 00:53 Clear 50 10 50 10 100 100 N N/A 30.30 1026 10 16 N/A
1:53 am 01:53 Clear with Mist and Fog 49 9.4 49 9.4 100 100 N N/A 30.29 1026 3 5 N/A
2:42 am 02:42 Clear with Mist and Fog 49 9.4 49 9.4 100 100 N N/A 30.30 1026 2 3 N/A
2:49 am 02:49 Clear 48 9 48 9 100 100 N N/A 30.27 1025 7 11 N/A
2:53 am 02:53 Clear 49 9.4 49 9.4 100 100 N N/A 30.28 1025 10 16 N/A
3:04 am 03:04 Clear with Mist and Fog 50 10 49 9.4 96 96 N N/A 30.27 1025 2 3 N/A
3:16 am 03:16 Clear with Mist and Fog 47 8.3 47 8.3 100 100 N N/A 30.27 1025 3 5 N/A
3:53 am 03:53 Clear 49 9.4 48 8.9 97 97 N N/A 30.27 1025 10 16 N/A
4:38 am 04:38 Clear with Mist and Fog 48 8.9 48 8.9 100 100 N N/A 30.27 1025 2 3 N/A
4:48 am 04:48 Clear with Mist and Fog 48 9 48 9 100 100 N N/A 30.27 1025 3 5 N/A
4:53 am 04:53 Clear 49 9.4 49 9.4 100 100 N N/A 30.26 1025 7 11 N/A
5:53 am 05:53 Clear with Mist and Fog 48 8.9 48 8.9 100 100 N N/A 30.25 1024 5 8 N/A
6:53 am 06:53 Clear 47 8.3 47 8.3 100 100 N N/A 30.27 1025 10 16 N/A
7:53 am 07:53 Sunny 49 9.4 49 9.4 100 100 N N/A 30.27 1025 10 16 N/A
8:53 am 08:53 Sunny 54 12.2 52 11.1 93 93 NNE 5 7 30.26 1025 10 16 N/A
9:53 am 09:53 Sunny 58 14.4 54 12.2 87 87 VRB 6 9 30.24 1024 10 16 N/A
10:53 am 10:53 Sunny 63 17.2 55 12.8 76 76 NE 8 13 30.24 1024 10 16 N/A
11:53 am 11:53 Sunny 68 20 55 12.8 63 63 NE 6 9 30.22 1023 10 16 N/A
12:53 pm 12:53 Sunny 71 21.7 53 11.7 53 53 ENE 10 17 30.20 1023 10 16 N/A
1:53 pm 13:53 Sunny 72 22.2 54 12.2 53 53 NE 8 13 30.18 1022 10 16 N/A
2:53 pm 14:53 Sunny 72 22.2 53 11.7 52 52 ENE 12 19 30.15 1021 10 16 N/A
3:53 pm 15:53 Sunny 72 22.2 52 11.1 50 50 NE 12 19 30.11 1020 10 16 N/A
4:53 pm 16:53 Sunny 71 21.7 51 10.6 49 49 ENE 12 19 30.10 1019 10 16 N/A
5:53 pm 17:53 Sunny 70 21.1 51 10.6 51 51 E 13 20 30.11 1020 10 16 N/A
6:53 pm 18:53 Sunny 68 20 51 10.6 55 55 ENE 5 7 30.10 1019 10 16 N/A
7:53 pm 19:53 Clear 63 17.2 55 12.8 76 76 E 3 6 30.09 1019 10 16 N/A
8:53 pm 20:53 Clear 61 16.1 55 12.8 81 81 NE 3 6 30.08 1019 10 16 N/A
9:53 pm 21:53 Clear 62 16.7 55 12.8 78 78 N 3 6 30.07 1018 10 16 N/A
10:53 pm 22:53 Clear 60 15.6 55 12.8 84 84 NNE 3 6 30.05 1018 10 16 N/A
11:53 pm 23:53 Clear 57 13.9 55 12.8 93 93 N N/A 30.04 1017 10 16 N/A

Powered by AerisWeather